Belleville, IL

2:22 PM CDT on August 20, 2017 (GMT -0500)
Scott Air Force Base-Midamerica

Weather History for KBLV - May, 2013

Change the Weather History Date:

Friday, May 3, 2013

  Actual Average Record
Temperature  
Mean Temperature 44 °F -  
Max Temperature 46 °F 71 °F 90 °F (1949)
Min Temperature 42 °F 47 °F 30 °F (1967)
Degree Days  
Heating Degree Days 21    
Moisture  
Dew Point 44 °F    
Average Humidity 99    
Maximum Humidity 100    
Minimum Humidity 93    
Precipitation  
Precipitation 2.21 in - - ()
Sea Level Pressure  
Sea Level Pressure 29.91 in    
Wind  
Wind Speed 8 mph (WNW)    
Max Wind Speed 14 mph    
Max Gust Speed -    
Visibility 7 miles    
Events Fog , Rain    
Averages and records for this station are not official NWS values.
T = Trace of Precipitation, MM = Missing Value Source: NWS Daily Summary

Daily Weather History Graph

Daily Weather History Graph

Search for Another Location

Airport or City:

Trip Planner

Search our weather history database for the weather conditions in past years. The results will help you decide how hot, cold, wet, or windy it might be!

Date:

Astronomy

May. 03, 2013 Rise Set
Actual Time 5:59 AM CDT 7:53 PM CDT
Civil Twilight 5:30 AM CDT 8:22 PM CDT
Nautical Twilight 4:55 AM CDT 8:57 PM CDT
Astronomical Twilight 4:18 AM CDT 9:35 PM CDT
Moon 2:19 AM CDT (5/3) 1:52 PM CDT (5/3)
Length of Visible Light 14h 51m
Length of Day
13h 53m
Last Quarter, 37% of the Moon is Illuminated
May 3
Last Quarter
May 9
New
May 17
First Quarter
May 24
Full
May 31
Last Quarter

Hourly Weather History & Observations

Time (CDT) Temp. Windchill Dew Point Humidity Pressure Visibility Wind Dir Wind Speed Gust Speed Precip Events Conditions
12:03 AM 46.4 °F 41.5 °F 46.4 °F 100% 30.08 in 10.0 mi NW 10.4 mph - N/A Rain Light Rain
12:08 AM 46.4 °F 41.5 °F 46.4 °F 100% 30.08 in 10.0 mi NW 10.4 mph - N/A Rain Light Rain
12:13 AM 46.4 °F 41.9 °F 46.4 °F 100% 30.08 in 10.0 mi NW 9.2 mph - N/A Rain Light Rain
12:18 AM 46.4 °F 41.5 °F 46.4 °F 100% 30.08 in 9.0 mi NW 10.4 mph - N/A Rain Light Rain
12:33 AM 46.4 °F 41.9 °F 46.4 °F 100% 30.07 in 9.0 mi NW 9.2 mph - N/A Rain Light Rain
12:38 AM 46.4 °F 42.4 °F 46.4 °F 100% 30.07 in 10.0 mi NW 8.1 mph - N/A Rain Light Rain
12:53 AM 46.4 °F 42.4 °F 46.4 °F 100% 30.06 in 10.0 mi NNW 8.1 mph - N/A Rain Light Rain
12:58 AM 46.2 °F 40.8 °F 45.9 °F 99% 30.06 in 10.0 mi NNW 11.5 mph - 0.06 in Rain Light Rain
1:08 AM 46.4 °F 42.4 °F 46.4 °F 100% 30.06 in 10.0 mi NNW 8.1 mph - N/A Rain Light Rain
1:33 AM 46.4 °F 42.4 °F 46.4 °F 100% 30.06 in 10.0 mi NW 8.1 mph - N/A Rain Light Rain
1:48 AM 46.4 °F 42.4 °F 44.6 °F 93% 30.05 in 10.0 mi NW 8.1 mph - N/A Rain Light Rain
1:58 AM 45.7 °F 41.5 °F 45.5 °F 99% 30.04 in 10.0 mi NW 8.1 mph - 0.03 in Rain Light Rain
2:33 AM 46.4 °F 42.4 °F 44.6 °F 93% 30.02 in 10.0 mi NW 8.1 mph - N/A Rain Light Rain
2:48 AM 46.4 °F 42.9 °F 44.6 °F 93% 30.02 in 10.0 mi NW 6.9 mph - N/A Rain Light Rain
2:53 AM 46.4 °F 41.9 °F 44.6 °F 93% 30.01 in 10.0 mi NW 9.2 mph - N/A Rain Light Rain
2:58 AM 45.5 °F 41.3 °F 45.3 °F 99% 30.01 in 10.0 mi NW 8.1 mph - 0.02 in Rain Light Rain
3:03 AM 46.4 °F 42.4 °F 44.6 °F 93% 30.01 in 10.0 mi NW 8.1 mph - N/A Rain Light Rain
3:20 AM 46.4 °F 42.4 °F 44.6 °F 93% 30.00 in 10.0 mi NW 8.1 mph - N/A   Overcast
3:58 AM 45.7 °F 41.5 °F 45.5 °F 99% 30.00 in 10.0 mi WNW 8.1 mph - 0.01 in   Overcast
4:01 AM 46.4 °F 41.5 °F 44.6 °F 93% 30.00 in 10.0 mi NW 10.4 mph - N/A Rain Light Rain
4:06 AM 44.6 °F 39.2 °F 44.6 °F 100% 30.00 in 3.0 mi NW 10.4 mph - N/A Rain Heavy Rain
4:11 AM 44.6 °F 40.2 °F 44.6 °F 100% 29.99 in 2.5 mi NW 8.1 mph - N/A Rain Heavy Rain
4:16 AM 44.6 °F 40.2 °F 44.6 °F 100% 30.00 in 4.0 mi WNW 8.1 mph - N/A Rain Rain
4:21 AM 44.6 °F 38.8 °F 44.6 °F 100% 30.00 in 6.0 mi West 11.5 mph - N/A Rain Light Rain
4:36 AM 44.6 °F 39.2 °F 44.6 °F 100% 29.99 in 10.0 mi WNW 10.4 mph - N/A Rain Light Rain
4:46 AM 44.6 °F 39.7 °F 44.6 °F 100% 29.99 in 10.0 mi WNW 9.2 mph - N/A Rain Light Rain
4:51 AM 44.6 °F 40.7 °F 44.6 °F 100% 29.99 in 10.0 mi NW 6.9 mph - N/A   Light Drizzle
4:56 AM 44.6 °F 39.7 °F 44.6 °F 100% 29.99 in 10.0 mi WNW 9.2 mph - N/A   Overcast
4:59 AM 44.6 °F 39.2 °F 44.6 °F 100% 29.99 in 10.0 mi WNW 10.4 mph - 0.11 in   Overcast
5:04 AM 44.6 °F 39.2 °F 44.6 °F 100% 29.99 in 10.0 mi WNW 10.4 mph - N/A   Overcast
5:07 AM 44.6 °F 38.8 °F 44.6 °F 100% 29.99 in 10.0 mi WNW 11.5 mph - N/A Rain Light Rain
5:47 AM 44.6 °F 39.7 °F 44.6 °F 100% 29.98 in 10.0 mi WNW 9.2 mph - N/A Rain Light Rain
5:58 AM 44.4 °F 39.5 °F 44.1 °F 99% 29.98 in 10.0 mi WNW 9.2 mph - 0.02 in Rain Light Rain
6:18 AM 44.6 °F 39.7 °F 44.6 °F 100% 29.98 in 10.0 mi WNW 9.2 mph - N/A Rain Light Rain
6:23 AM 44.6 °F 39.7 °F 44.6 °F 100% 29.98 in 10.0 mi NW 9.2 mph - N/A Rain Light Rain
6:33 AM 44.6 °F 40.2 °F 44.6 °F 100% 29.98 in 10.0 mi WNW 8.1 mph - N/A Rain Light Rain
6:48 AM 44.6 °F 39.2 °F 42.8 °F 93% 29.97 in 10.0 mi NW 10.4 mph - N/A Rain Light Rain
6:58 AM 43.9 °F 38.8 °F 43.5 °F 99% 29.99 in 8.0 mi NW 9.2 mph - 0.00 in Rain Light Rain
7:08 AM 44.6 °F 40.2 °F 42.8 °F 93% 29.97 in 6.0 mi NW 8.1 mph - N/A Rain Light Rain
7:13 AM 42.8 °F 37.5 °F 42.8 °F 100% 29.97 in 4.0 mi NW 9.2 mph - N/A Rain Light Rain
7:18 AM 42.8 °F 37.0 °F 42.8 °F 100% 29.96 in 2.5 mi NW 10.4 mph - N/A Rain Heavy Rain
7:23 AM 42.8 °F 38.6 °F 42.8 °F 100% 29.97 in 2.0 mi NNW 6.9 mph - N/A Rain Heavy Rain
7:28 AM 42.8 °F 38.0 °F 42.8 °F 100% 29.96 in 3.0 mi NW 8.1 mph - N/A Rain Rain
7:38 AM 42.8 °F 39.3 °F 42.8 °F 100% 29.96 in 7.0 mi NNW 5.8 mph - N/A Rain Light Rain
7:58 AM 43.5 °F 40.9 °F 43.3 °F 99% 29.97 in 6.0 mi NNW 4.6 mph - 0.14 in Rain Rain
8:03 AM 42.8 °F 40.1 °F 42.8 °F 100% 29.96 in 7.0 mi NNW 4.6 mph - N/A Rain Light Rain
8:18 AM 44.6 °F 41.4 °F 42.8 °F 93% 29.96 in 5.0 mi WNW 5.8 mph - N/A Rain Rain
8:23 AM 42.8 °F 38.6 °F 42.8 °F 100% 29.96 in 3.0 mi WNW 6.9 mph - N/A Rain Rain
8:28 AM 42.8 °F 38.6 °F 42.8 °F 100% 29.96 in 2.5 mi WNW 6.9 mph - N/A Rain Heavy Rain
8:38 AM 42.8 °F 38.6 °F 42.8 °F 100% 29.95 in 3.0 mi WNW 6.9 mph - N/A Rain Rain
8:53 AM 44.6 °F 40.2 °F 42.8 °F 93% 29.96 in 10.0 mi West 8.1 mph - N/A Rain Light Rain
8:58 AM 43.9 °F 39.3 °F 43.7 °F 99% 29.98 in 10.0 mi WNW 8.1 mph - 0.12 in Rain Light Rain
9:03 AM 44.6 °F 40.7 °F 42.8 °F 93% 29.96 in 10.0 mi West 6.9 mph - N/A   Light Drizzle
9:18 AM 44.6 °F 40.2 °F 42.8 °F 93% 29.95 in 9.0 mi West 8.1 mph - N/A Rain Light Rain
9:38 AM 44.6 °F 39.7 °F 44.6 °F 100% 29.95 in 8.0 mi WNW 9.2 mph - N/A   Light Drizzle
9:49 AM 44.6 °F 40.7 °F 44.6 °F 100% 29.95 in 8.0 mi West 6.9 mph - N/A   Overcast
9:58 AM 44.1 °F 39.5 °F 43.9 °F 99% 29.96 in 8.0 mi WNW 8.1 mph - 0.01 in   Overcast
10:08 AM 44.6 °F 40.2 °F 42.8 °F 93% 29.94 in 9.0 mi WNW 8.1 mph - N/A   Overcast
10:21 AM 44.6 °F 40.2 °F 44.6 °F 100% 29.94 in 9.0 mi WNW 8.1 mph - N/A Rain Light Rain
10:31 AM 44.6 °F 40.2 °F 44.6 °F 100% 29.94 in 8.0 mi NW 8.1 mph - N/A   Overcast
10:41 AM 44.6 °F 39.7 °F 42.8 °F 93% 29.94 in 10.0 mi NW 9.2 mph - N/A Rain Light Rain
10:46 AM 44.6 °F 39.7 °F 44.6 °F 100% 29.94 in 7.0 mi NW 9.2 mph - N/A Rain Light Rain
10:51 AM 44.6 °F 39.7 °F 42.8 °F 93% 29.94 in 5.0 mi WNW 9.2 mph - N/A Rain Light Rain
10:55 AM 44.6 °F 39.7 °F 42.8 °F 93% 29.95 in 7.0 mi WNW 9.2 mph - N/A Rain Light Rain
11:16 AM 44.6 °F 41.4 °F 44.6 °F 100% 29.93 in 8.0 mi NW 5.8 mph - N/A Rain Light Rain
11:26 AM 44.6 °F 39.7 °F 44.6 °F 100% 29.93 in 8.0 mi NW 9.2 mph - N/A Rain Light Rain
11:46 AM 44.6 °F 41.4 °F 44.6 °F 100% 29.92 in 10.0 mi NW 5.8 mph - N/A   Overcast
11:58 AM 44.6 °F 40.2 °F 44.4 °F 99% 29.93 in 10.0 mi NW 8.1 mph - 0.07 in   Overcast
12:28 PM 44.6 °F 41.4 °F 44.6 °F 100% 29.90 in 10.0 mi NW 5.8 mph - N/A Rain Light Rain
12:48 PM 44.6 °F 40.7 °F 44.6 °F 100% 29.89 in 10.0 mi NW 6.9 mph - N/A Rain Light Rain
12:58 PM 44.6 °F 41.4 °F 44.2 °F 99% 29.91 in 7.0 mi NW 5.8 mph - 0.01 in Rain Light Rain
1:08 PM 44.6 °F 40.7 °F 44.6 °F 100% 29.88 in 7.0 mi WNW 6.9 mph - N/A Rain Light Rain
1:13 PM 44.6 °F 40.7 °F 44.6 °F 100% 29.89 in 5.0 mi NW 6.9 mph - N/A Rain Light Rain
1:28 PM 44.6 °F 41.4 °F 44.6 °F 100% 29.88 in 9.0 mi NW 5.8 mph - N/A Rain Light Rain
1:48 PM 44.6 °F 40.7 °F 44.6 °F 100% 29.87 in 9.0 mi NW 6.9 mph - N/A Rain Light Rain
1:58 PM 45.0 °F 40.6 °F 44.8 °F 99% 29.89 in 5.0 mi NW 8.1 mph - 0.06 in Rain Light Rain
2:03 PM 44.6 °F 40.7 °F 44.6 °F 100% 29.86 in 1.5 mi NNW 6.9 mph - N/A Rain Heavy Rain
2:08 PM 44.6 °F 40.7 °F 44.6 °F 100% 29.86 in 0.8 mi NW 6.9 mph - N/A Rain Heavy Rain
2:13 PM 44.6 °F 40.7 °F 44.6 °F 100% 29.86 in 0.5 mi NW 6.9 mph - N/A Fog , Rain Heavy Rain
2:23 PM 44.6 °F 40.7 °F 44.6 °F 100% 29.85 in 0.5 mi NW 6.9 mph - N/A Fog , Rain Heavy Rain
2:28 PM 44.6 °F 41.4 °F 44.6 °F 100% 29.85 in 1.2 mi NW 5.8 mph - N/A Rain Light Rain
2:33 PM 44.6 °F 42.2 °F 44.6 °F 100% 29.86 in 6.0 mi WNW 4.6 mph - N/A Rain Light Rain
2:43 PM 44.6 °F 40.7 °F 44.6 °F 100% 29.85 in 2.5 mi WNW 6.9 mph - N/A Rain Light Rain
2:48 PM 44.6 °F 41.4 °F 44.6 °F 100% 29.85 in 2.5 mi NW 5.8 mph - N/A Rain Light Rain
2:53 PM 44.6 °F 40.7 °F 44.6 °F 100% 29.85 in 5.0 mi WNW 6.9 mph - N/A Rain Rain
2:58 PM 45.3 °F 41.6 °F 45.0 °F 99% 29.88 in 5.0 mi West 6.9 mph - 0.51 in Rain Light Rain
3:08 PM 44.6 °F 40.2 °F 44.6 °F 100% 29.86 in 5.0 mi West 8.1 mph - N/A Rain Light Rain
3:13 PM 44.6 °F 40.2 °F 44.6 °F 100% 29.86 in 5.0 mi WNW 8.1 mph - N/A Rain Light Rain
3:18 PM 44.6 °F 40.2 °F 44.6 °F 100% 29.85 in 5.0 mi WNW 8.1 mph - N/A Rain Rain
3:58 PM 45.3 °F 40.1 °F 45.1 °F 99% 29.86 in 7.0 mi West 10.4 mph - 0.13 in Rain Light Rain
4:08 PM 44.6 °F 39.7 °F 44.6 °F 100% 29.83 in 10.0 mi WNW 9.2 mph - N/A Rain Light Rain
4:38 PM 44.6 °F 40.2 °F 44.6 °F 100% 29.83 in 1.8 mi WNW 8.1 mph - N/A Rain Rain
4:43 PM 44.6 °F 39.2 °F 44.6 °F 100% 29.82 in 1.0 mi NW 10.4 mph - N/A Rain Heavy Rain
4:48 PM 44.6 °F 39.7 °F 44.6 °F 100% 29.82 in 1.2 mi NNW 9.2 mph - N/A Rain Heavy Rain
4:53 PM 44.6 °F 40.2 °F 44.6 °F 100% 29.82 in 3.0 mi NW 8.1 mph - N/A Rain Rain
4:58 PM 44.8 °F 40.4 °F 44.4 °F 99% 29.83 in 4.0 mi NW 8.1 mph - 0.19 in Rain Rain
5:03 PM 44.6 °F 40.2 °F 44.6 °F 100% 29.81 in 2.5 mi WNW 8.1 mph - N/A Rain Rain
5:08 PM 44.6 °F 40.7 °F 44.6 °F 100% 29.82 in 2.0 mi Variable 6.9 mph - N/A Rain Light Rain
5:13 PM 44.6 °F 40.7 °F 44.6 °F 100% 29.82 in 3.0 mi NW 6.9 mph - N/A Rain Light Rain
5:18 PM 44.6 °F 40.7 °F 44.6 °F 100% 29.81 in 10.0 mi NW 6.9 mph - N/A Rain Light Rain
5:23 PM 44.6 °F 40.2 °F 44.6 °F 100% 29.81 in 10.0 mi WNW 8.1 mph - N/A Rain Light Rain
5:43 PM 44.6 °F 39.7 °F 44.6 °F 100% 29.80 in 10.0 mi NW 9.2 mph - N/A Rain Light Rain
5:52 PM 44.6 °F 39.7 °F 44.6 °F 100% 29.81 in 10.0 mi WNW 9.2 mph - N/A   Overcast
5:58 PM 45.3 °F 40.1 °F 45.1 °F 99% 29.83 in 10.0 mi WNW 10.4 mph - 0.07 in   Overcast
5:59 PM 44.6 °F 38.4 °F 44.6 °F 100% 29.81 in 10.0 mi WNW 12.7 mph - N/A Rain Light Rain
6:14 PM 44.6 °F 39.7 °F 44.6 °F 100% 29.82 in 10.0 mi WSW 9.2 mph - N/A Rain Light Rain
6:29 PM 44.6 °F 39.2 °F 44.6 °F 100% 29.83 in 7.0 mi WSW 10.4 mph - N/A Rain Light Rain
6:39 PM 44.6 °F 38.4 °F 44.6 °F 100% 29.84 in 3.0 mi West 12.7 mph - N/A Rain Heavy Rain
6:44 PM 44.6 °F 40.2 °F 44.6 °F 100% 29.83 in 1.5 mi WNW 8.1 mph - N/A Rain Heavy Rain
6:49 PM 44.6 °F 38.1 °F 44.6 °F 100% 29.81 in 1.8 mi NW 13.8 mph - N/A Rain Light Rain
6:54 PM 44.6 °F 39.2 °F 42.8 °F 93% 29.83 in 2.5 mi WNW 10.4 mph - N/A Rain Light Rain
6:58 PM 43.9 °F 38.3 °F 43.7 °F 99% 29.84 in 1.2 mi WNW 10.4 mph - 0.24 in Rain Heavy Rain
7:03 PM 44.6 °F 41.4 °F 42.8 °F 93% 29.82 in 1.0 mi WNW 5.8 mph - N/A Rain Light Rain
7:08 PM 44.6 °F 41.4 °F 44.6 °F 100% 29.81 in 6.0 mi WNW 5.8 mph - N/A Rain Light Rain
7:13 PM 44.6 °F 39.7 °F 44.6 °F 100% 29.81 in 8.0 mi NW 9.2 mph - N/A Rain Light Rain
7:18 PM 44.6 °F 39.7 °F 44.6 °F 100% 29.81 in 5.0 mi NW 9.2 mph - N/A Rain Rain
7:28 PM 44.6 °F 40.2 °F 44.6 °F 100% 29.81 in 4.0 mi WNW 8.1 mph - N/A Rain Rain
7:38 PM 44.6 °F 43.1 °F 44.6 °F 100% 29.82 in 5.0 mi WNW 3.5 mph - N/A Rain Rain
7:43 PM 44.6 °F 42.2 °F 44.6 °F 100% 29.82 in 1.2 mi WNW 4.6 mph - N/A Rain Heavy Rain
7:48 PM 44.6 °F 40.7 °F 44.6 °F 100% 29.81 in 1.0 mi WNW 6.9 mph - N/A Rain Rain
7:53 PM 44.6 °F 42.2 °F 44.6 °F 100% 29.81 in 3.0 mi West 4.6 mph - N/A Rain Light Rain
7:58 PM 44.1 °F 40.1 °F 43.9 °F 99% 29.83 in 6.0 mi West 6.9 mph - 0.21 in Rain Light Rain
8:08 PM 44.6 °F 40.7 °F 42.8 °F 93% 29.83 in 7.0 mi WSW 6.9 mph - N/A Rain Light Rain
8:28 PM 44.6 °F 41.4 °F 42.8 °F 93% 29.81 in 9.0 mi WSW 5.8 mph - N/A Rain Light Rain
8:38 PM 44.6 °F 43.1 °F 42.8 °F 93% 29.82 in 3.0 mi WSW 3.5 mph - N/A Rain Rain
8:43 PM 42.8 °F 41.1 °F 42.8 °F 100% 29.83 in 4.0 mi WSW 3.5 mph - N/A Rain Light Rain
8:48 PM 42.8 °F 40.1 °F 42.8 °F 100% 29.82 in 7.0 mi WSW 4.6 mph - N/A Rain Light Rain
8:53 PM 42.8 °F 40.1 °F 42.8 °F 100% 29.82 in 10.0 mi West 4.6 mph - N/A Rain Light Rain
8:58 PM 43.5 °F 40.1 °F 43.3 °F 99% 29.84 in 10.0 mi SW 5.8 mph - 0.15 in Rain Light Rain
9:13 PM 42.8 °F 41.1 °F 42.8 °F 100% 29.84 in 10.0 mi SSW 3.5 mph - N/A Rain Light Rain
9:58 PM 42.8 °F 37.0 °F 42.6 °F 99% 29.87 in 10.0 mi SW 10.4 mph - 0.01 in Rain Light Rain
10:28 PM 42.8 °F 37.5 °F 42.8 °F 100% 29.84 in 10.0 mi SW 9.2 mph - N/A Rain Light Rain
10:48 PM 42.8 °F 37.5 °F 42.8 °F 100% 29.86 in 10.0 mi SSW 9.2 mph - N/A Rain Light Rain
10:58 PM 42.4 °F 37.0 °F 42.3 °F 99% 29.88 in 10.0 mi South 9.2 mph - 0.03 in Rain Light Rain
11:03 PM 42.8 °F 38.0 °F 42.8 °F 100% 29.87 in 10.0 mi SSW 8.1 mph - N/A Rain Light Rain
11:04 PM 42.8 °F 38.0 °F 42.8 °F 100% 29.87 in 10.0 mi SSW 8.1 mph - N/A   Overcast
11:05 PM 42.8 °F 38.0 °F 42.8 °F 100% 29.87 in 10.0 mi South 8.1 mph - N/A Rain Light Rain
11:10 PM 42.8 °F 37.5 °F 42.8 °F 100% 29.87 in 10.0 mi SSW 9.2 mph - N/A Rain Light Rain
11:20 PM 42.8 °F 39.3 °F 42.8 °F 100% 29.86 in 10.0 mi SSW 5.8 mph - N/A Rain Light Rain
11:37 PM 42.8 °F 39.3 °F 41.0 °F 93% 29.86 in 10.0 mi SSW 5.8 mph - N/A   Overcast
11:40 PM 42.8 °F 38.6 °F 42.8 °F 100% 29.87 in 10.0 mi South 6.9 mph - N/A Rain Light Rain
11:58 PM 42.3 °F 38.6 °F 41.9 °F 99% 29.89 in 10.0 mi SSW 5.8 mph - 0.01 in Rain Light Rain